Terminal Aerodrome Forecast
Issued by NWS Charleston, WV

Current Version | Previous Version | Graphics & Text | Print | Product List | Glossary On
Versions: 1 2 3 4 5 6 7 8 9 10 11 12 13 14 15 16 17 18 19 20 21 22 23
715
FTUS41 KRLX 201456 AAA
TAFEKN
TAF AMD
KEKN 201456Z 2015/2112 VRB03KT P6SM FEW250
     FM210500 00000KT 3SM BR SCT001
     FM210600 00000KT 1/2SM FG OVC001=

USA.gov is the U.S. government's official web portal to all federal, state and local government web resources and services.